STARLINK-2221, 48571

Orbit data source: Space-Track

STARLINK-2221, 48571 is a payload satellite owned by SpaceX/Seattle (US) in LEO that was launched on Sat, 15 May 2021 UTC via an FALCON 9 launch vehicle from the Air Force Eastern Test Range (AFETR). Payload-class satellites include a variety of spacecraft equipped with specific instruments for various scientific and technological missions. These include communications satellites like Starlink; space stations such as the ISS; scientific satellites like the Hubble; Earth observation satellites from companies like Planet Labs, Umbra, and HawkEye 360; GPS; miniature CubeSats for education and research; and military/defense satellites.

Loading next visibility...
Identifier
48571, 2021-041U
Orbit
LEO
Country
Flag of USUS
Related business
Manufacturer
SpaceX/Seattle
Mission
Operational Commercial Communications
Bus & Motor
STARLINK, Unknown motor
Mass
260 kg wet, ~248 kg dry
Launch date (UTC)
2021-05-15 (5 years ago)
Launch vehicle
FALCON 9
Launch site
Air Force Eastern Test Range (AFETR)
Object type
Payload
Rocket body
Debris
Shape & HBR
Box + 1 Pan, 10.1 m
Radar Cross Section
13.562 m², Large (>1 m²)

Expand to show TLE details & history
Last TLE update: 1 day ago

TLE from 1 day ago
0 STARLINK-2221
1 48571U 21041U   25348.90116990  .00001002  00000-0  86144-4 0  9990
2 48571  53.0541 162.2490 0001531  86.0621 274.0543 15.06393018252282
Epoch: 2025-12-14T21:37Z
TLE epoch observation values (Epoch: 2025-12-14T21:37:41.079Z)
Latitude
-0.00001°
Longitude
114.02039°
Altitude
548.037 km
Speed
7.589 km/s
True Right ascension
10h 48m 59s
True Declination
0° 00' 00"
Sunlit
Object was in daylight at epoch
Visualization orbit readout
Latitude
Unknown
Longitude
Unknown
Altitude
Unknown
Speed
Unknown
Apparent Right ascension
Unknown
Apparent Declination
Unknown
Sunlit
N/A
Visualization observer readout
Local Sidereal Time
00:22:56
Azimuth
Unknown
Elevation
Unknown
Doppler factor
Unknown
Orbital elements
Apogee altitude
548.564 km
Perigee altitude
546.443 km
Semi-major axis
6,925.641 km
Eccentricity
0.00015
Inclination
53.0541°
RAAN
162.249°
Arg. of periapsis
86.0621°
True anomaly
274.0368°
Mean anomaly
274.0543°
Eccentric anomaly
274.04555°
Mean motion
3.76577 °/min
Orbital period
95.6 mins
BSTAR
0.000086144
Loading maneuver chart data...
Computing Atmospheric mass density...
Loading historical data...
Loading historical data...
Loading historical data...
Loading historical data...
Loading historical data...
Loading historical data...
Loading historical data...

Documentation

Showing up to 5 results
|